Regional Weather Roundup
Issued by NWS Newport/Morehead, NC

Current Version | Previous Version | Graphics & Text | Print | Product List | Glossary Off
Versions: 1 2 3 4 5 6 7 8 9 10 11 12 13 14 15 16 17 18 19 20 21 22 23 24 25 26 27 28 29 30 31 32 33 34 35 36 37 38 39 40 41 42 43 44 45 46 47 48 49 50

000
ASUS42 KMHX 280913
RWRMHX
WEATHER ROUNDUP FOR EASTERN NORTH CAROLINA
NATIONAL WEATHER SERVICE NEWPORT/MOREHEAD CITY NC
500 AM EDT SAT MAY 28 2016

NOTE: "FAIR" INDICATES FEW OR NO CLOUDS BELOW 12,000 FEET
WITH NO SIGNIFICANT WEATHER AND/OR OBSTRUCTIONS TO VISIBILITY

NCZ015>017-031-032-045>047-102-103-281000-
NORTH COAST

CITY           SKY/WX    TMP DP  RH WIND       PRES   REMARKS
EDENTON        CLEAR    N/A N/A N/A CALM      30.16S
ELIZABETH CITY CLEAR     62  61  96 CALM      30.16R
KITTY HAWK     FOG       63  62  94 CALM      30.15R VSB 1
MANTEO         NOT AVBL

$$

NCZ045>047-081-094-103-104-281000-
CENTRAL COAST

CITY           SKY/WX    TMP DP  RH WIND       PRES   REMARKS
FRISCO         CLEAR     73  68  84 SE6       30.14R

$$

NCZ095-097-098-100-101-281000-
SOUTHERN COAST

CITY           SKY/WX    TMP DP  RH WIND       PRES   REMARKS
BEAUFORT       CLEAR     67  65  93 NE5       30.13R
CEDAR ISLAND   NOT AVBL
JACKSONVILLE   PTCLDY    65  61  87 N3        30.12S
PINEY ISLAND   MOSUNNY  N/A N/A N/A E5        30.13S
WILMINGTON     PTCLDY    64  63  96 NE5       30.11S


$$

NCZ011>013-027>030-043-044-078>080-089-090>093-098-281000-
COASTAL PLAIN

CITY           SKY/WX    TMP DP  RH WIND       PRES   REMARKS
AHOSKIE        CLEAR     58  57  97 CALM      30.16S
CLINTON        CLOUDY    61  60  99 CALM      30.14S
ELIZABETHTOWN  CLEAR     62  62 100 CALM      30.13R
GOLDSBORO      CLEAR     58  58 100 CALM      30.13S
GREENVILLE     CLEAR     57  57 100 CALM      30.16S FOG
HAVELOCK       CLEAR     67  65  93 CALM      30.14S
KENANSVILLE    CLOUDY    57  56  97 CALM      30.15R FOG
KINSTON        CLEAR     58  57  96 CALM      30.15S
NEW BERN       CLEAR     63  60  90 CALM      30.14S
RICHLANDS      CLEAR     60  59  96 NE3       30.14S FOG
ROCKY MOUNT    CLEAR     56  56 100 CALM      30.15S FOG
WASHINGTON     CLEAR     59  58  95 CALM      30.15S
WHITEVILLE     CLEAR     62  61  96 CALM      30.11S FOG

$$

AMZ130-135-150-152-154-156-158-170-250-252-270-ANZ085-086-088-633-658-670-281000-
MARINE OBSERVATIONS

STATION/POSITION TIME  TEMP    WIND        PRES    WAVE   SWELL
                       AIR SEA DIR/SP/G            HT/PER HT/PER
                 (UTC) (F)     (DEG/KT/KT) (MB)    (FT/S) (FT/S)
CHESAPEAKE LIGHT 0900   67     210/  9/  9 1022.0
64 E VA BEACH    0850   65 61   50/  4/  4 1021.3    3/ 8   3/ 8
DUCK             0800   65 59  160/  6/  6 1020.3
2 E DUCK         0811      63                N/A     2/ 8
OREGON INLET     0800   67 78   80/  4/  4 1020.6
13E OREGON INLT  0900      70                N/A     3/ 9   3/ 9
HATTERAS CG      0800   74 74  120/  6/  7 1019.9
DIAMOND BUOY     0850   76 78  120/ 12/ 14 1020.2    4/ 8   3/ 8
CAPE LOOKOUT     0900   74     110/  7/  8 1019.7
BEAUFORT LAB     0800   72 73   30/  3/  4 1019.2
30 SE NEW RVR IN 0825      74                N/A     5/ 7
27 SE WRIGHTSVLE 0808   76 74  100/  8/ 12 1018.5
5 SE WRIGHTSVLE  0808   74 74   60/  6/  8 1020.0
225 S CAPE HAT   0850   76 77   90/ 17/ 19 1017.2    5/ 8   3/ 8
41 SE CHARLESTON 0850   76 76   30/ 14/ 16 1016.7    4/ 7

$$




USA.gov is the U.S. government's official web portal to all federal, state and local government web resources and services.